Overview Statistics Trail Chart Weather Telemetry Raw packets
 

This is the latest recevied weather packets stored in our database for station/object KK6MIG-13. If no packets are shown the sender has not sent any weather packets the latest 10 day(s).

<< 524 525 526 527 528 529 530 >>
Time Temp. Humidity Pressure Rain* Wind** Luminosity Snow
1787790490 18.33° C 31% 1012.5 hPa 0 mm - 422 W/m² -
1787790431 18.33° C 33% 1012.5 hPa 0 mm - 427 W/m² -
1787790371 18.33° C 33% 1012.6 hPa 0 mm - 431 W/m² -
1787790310 18.33° C 35% 1012.5 hPa 0 mm - 434 W/m² -
1787790250 18.33° C 36% 1012.6 hPa 0 mm - 438 W/m² -
1787790190 18.33° C 34% 1012.6 hPa 0 mm - 438 W/m² -
1787790130 18.33° C 33% 1012.6 hPa 0 mm - 443 W/m² -
1787790070 18.33° C 34% 1012.7 hPa 0 mm - 448 W/m² -
1787790006 18.33° C 31% 1012.7 hPa 0 mm - 452 W/m² -
1787789944 18.33° C 33% 1012.7 hPa 0 mm - 454 W/m² -
1787789885 18.33° C 35% 1012.7 hPa 0 mm - 457 W/m² -
1787789826 18.33° C 34% 1012.6 hPa 0 mm - 459 W/m² -
1787789764 18.33° C 32% 1012.7 hPa 0 mm - 464 W/m² -
1787789698 18.33° C 36% 1012.7 hPa 0 mm - 468 W/m² -
1787789639 18.33° C 37% 1012.7 hPa 0 mm - 471 W/m² -
1787789579 18.33° C 38% 1012.7 hPa 0 mm - 473 W/m² -
1787789518 18.33° C 35% 1012.7 hPa 0 mm - 475 W/m² -
1787789469 18.33° C 34% 1012.7 hPa 0 mm - 483 W/m² -
1787789465 18.33° C 32% 1012.7 hPa 0 mm - 485 W/m² -
1787789461 18.33° C 34% 1012.7 hPa 0 mm - 483 W/m² -
1787789272 18.33° C 32% 1012.7 hPa 0 mm - 494 W/m² -
1787789213 18.33° C 32% 1012.7 hPa 0 mm - 494 W/m² -
1787789153 18.33° C 32% 1012.7 hPa 0 mm - 497 W/m² -
1787789089 18.33° C 33% 1012.7 hPa 0 mm - 503 W/m² -
1787789028 18.33° C 32% 1012.7 hPa 0 mm - 506 W/m² -

* Rain latest hour (hover to see other rain measurements)
** Current wind speed in m/s (hover to see current wind gust speed)